Retour au catalogue

CZ-3A DEB

ActifGTO
NORAD 48531·DEBRIS·🇨🇳 China

Lancé Feb 2, 2007 depuis Xichang Satellite Launch Center

Loading…

TLE

PériméSource: Space-Track

Époque: Sep 7, 2026, 06:45 UTC

1 48531U 07003AT  26250.28132841  .00001498  00000-0  17087-2 0  9992
2 48531  23.2348 330.4311 7108491 102.6844 338.7121  2.44429949 86191

Suivez CZ-3A DEB en temps réel avec AllMySat

Download on the App Store